Regional Weather Roundup
Issued by NWS Boston, MA

Home | Current Version | Previous Version | Text Only | Print | Product List | Glossary On
Versions: 1 2 3 4 5 6 7 8 9 10 11 12 13 14 15 16 17 18 19 20 21 22 23 24 25 26 27 28 29 30 31 32 33 34 35 36 37 38 39 40 41 42 43 44 45 46 47 48 49 50
000
ASUS41 KBOX 291510
RWRBOX

REGIONAL WEATHER ROUNDUP
NATIONAL WEATHER SERVICE TAUNTON MA
1100 AM EDT FRI AUG 29 2014

NOTE:  "FAIR" INDICATES FEW OR NO CLOUDS BELOW 12,000 FEET WITH NO
SIGNIFICANT WEATHER AND/OR OBSTRUCTIONS TO VISIBILITY.  THE FOLLOWING
OBSERVATION LOCATIONS DO NOT REPORT PRESENT WEATHER...PROVINCETOWN...
SMITHFIELD...BLOCK ISLAND...KEENE...AND OXFORD.

MAZALL-291600-
EASTERN MASSACHUSETTS

CITY           SKY/WX    TMP DP  RH WIND       PRES   REMARKS
BOSTON         MOSUNNY   69  54  58 E13       30.18R
BEVERLY        SUNNY     70  52  52 NE8       30.17R
LAWRENCE       SUNNY     71  54  54 VRB6      30.19R
BEDFORD        MOSUNNY  N/A N/A N/A NE7       30.17R
BLUE HILL        N/A     70  52  52 E9        30.18R
NORWOOD        SUNNY     72  52  49 E9        30.17R
MARSHFIELD     SUNNY     68  55  64 N7        30.20R
PLYMOUTH       SUNNY     68  51  54 NE13      30.18R
TAUNTON        SUNNY     72  52  49 VRB6      30.17R
NEW BEDFORD    MOSUNNY   72  53  51 E7        30.16R
$$

MAZALL-291600-
CAPE COD AND THE ISLANDS

CITY           SKY/WX    TMP DP  RH WIND       PRES   REMARKS
FALMOUTH       SUNNY     68  55  64 NE14      30.17R
HYANNIS        MOSUNNY   70  54  56 N13G21    30.15R
CHATHAM        MOSUNNY   69  53  56 NE12      30.17R
PROVINCETOWN   SUNNY     68  55  64 N10G17    30.18R
NANTUCKET      SUNNY     70  54  56 N18       30.15R
MARTHAS VNYRD  SUNNY     70  53  54 NE12      30.16R
$$

MAZALL-291600-
CENTRAL AND WESTERN MASSACHUSETTS

CITY           SKY/WX    TMP DP  RH WIND       PRES   REMARKS
WORCESTER      SUNNY     66  49  54 VRB5      30.20R
FITCHBURG      MOSUNNY   73  51  46 VRB3      30.19R
ORANGE         SUNNY     69  51  52 VRB6      30.20R
SPRINGFIELD    SUNNY     69  55  61 N7        30.19R
WESTFIELD      SUNNY     71  52  50 N9        30.20R
NORTH ADAMS    SUNNY     67  53  61 N6        30.21S
PITTSFIELD     SUNNY     67  52  58 VRB7      30.20S
$$

RIZALL-291600-
RHODE ISLAND

CITY           SKY/WX    TMP DP  RH WIND       PRES   REMARKS
PROVIDENCE     MOSUNNY   73  51  46 VRB5      30.18R
NEWPORT        SUNNY     71  51  49 NE8       30.18R
BLOCK ISLAND   SUNNY     70  55  60 NE9       30.19R
SMITHFIELD     SUNNY     70  48  46 NE3       30.19R
WESTERLY       SUNNY     73  50  44 VRB6      30.18R
$$

CTZALL-291600-
CONNECTICUT

CITY           SKY/WX    TMP DP  RH WIND       PRES   REMARKS
BRADLEY INTL   MOSUNNY   72  52  49 NE10      30.19R
HARTFORD       SUNNY     70  53  54 VRB5      30.19S
BRIDGEPORT     SUNNY     74  53  48 E8        30.18S
DANBURY        SUNNY     69  51  52 VRB5      30.21S
GROTON         SUNNY     70  53  54 CALM      30.17S
NEW HAVEN      MOSUNNY   73  50  44 N7        30.18S
CHESTER        FAIR      70  52  52 N6        30.20S
MERIDEN        SUNNY     73  50  44 MISG      30.19S
WILLIMANTIC    SUNNY     71  52  50 CALM      30.19R
OXFORD         MOSUNNY   68  50  52 E5        30.21S
$$

MEZ002-015-021-024-NHZ003-005-008-011-012-014-VTZ005-008-291600-
NORTHERN NEW ENGLAND

CITY           SKY/WX    TMP DP  RH WIND       PRES   REMARKS
PORTLAND ME    MOSUNNY   65  53  65 NE9       30.18R
BANGOR ME      MOSUNNY   65  43  44 N14       30.18S
CONCORD NH     SUNNY     70  54  56 W6        30.18R
MANCHESTER NH  MOSUNNY   72  52  49 CALM      30.16S
NASHUA NH      SUNNY     71  51  49 CALM      30.18S
PORTSMOUTH NH  MOSUNNY   68  55  64 E7        30.17R
JAFFREY NH     SUNNY     68  51  54 E3        30.20S
KEENE NH       SUNNY     66  48  52 N6        30.20S
BURLINGTON VT  CLOUDY    65  54  67 N3        30.22S
MT. WASHINGTON PTSUNNY   46  39  76 NE8         N/A
$$

NYZ052-076-291600-
EASTERN NEW YORK

CITY           SKY/WX    TMP DP  RH WIND       PRES   REMARKS
ALBANY         MOSUNNY   69  54  58 NE8       30.22S
NEW YORK CITY  MOSUNNY   72  50  45 E8        30.18F
$$

ANZALL-291600-
MARINE OBSERVATIONS

STATION/POSITION TIME  TEMP    WIND        PRES    VSBY  WAVE
                       AIR SEA DIR/SP/G                  HT/PER
                 (UTC) (F)     (DEG/KT/KT) (MB)    (MI)  (FT/S)
BOSTON BUOY      1450   63 67   30/ 12/ 14 1022.1R         2/13
BUZZARDS BAY     1400           40/ 11/ 12 1022.1R
NANTUCKET SOUND  1450   66 70   20/ 12/ 14 1020.9R         2/ 3
MASS BAY-STELLWA 1404   63 64   10/ 12/ 12   N/A    1 7/8  1/ 4
ISLE OF SHOALS   1500   62      80/ 10/ 11 1021.7R
S OF BLOCK IS    1408      66                N/A           4/11
$$

......................KEY.........................
  SKY/WX - SKY CONDITION/PRESENT WEATHER
  TMP    - TEMPERATURE IN FAHRENHEIT
  DWPT   - DEWPOINT IN FAHRENHEIT
  RH     - RELATIVE HUMIDITY IN PERCENT
  WIND   - DIRECTION AND SPEED IN MPH
  PRES   - MEAN SEA LEVEL PRESSURE IN INCHES OF HG
  WCI    - WIND CHILL INDEX
  VSB    - VISIBILITY IN MILES
  HX     - HEAT INDEX
  TC     - TEMPERATURE IN CELSIUS
  VRB    - VARIABLE WIND DIRECTION
  N/A    - NOT AVAILABLE


USA.gov is the U.S. government's official web portal to all federal, state and local government web resources and services.